IZ1GCT Weather Reports


Display with metric or nautical units.
time (UTC)temp
F
wind
direction
speed
MPH
gust
MPH
rain 1hr
in
rain 24hr
in
rain mn
in
humidity
%
barometer
mb
20260904003133 63 158 0.0 1.0 0.00 0.00 0.00 65 1024.0
20260904002633 62 158 0.0 1.0 0.00 0.00 0.00 66 1024.0
20260904001917 62 158 0.0 2.0 0.00 0.00 0.00 67 1024.1
20260904001417 62 135 0.0 0.0 0.00 0.00 0.00 67 1024.1
20260904000916 62 152 1.0 1.0 0.00 0.00 0.00 66 1024.0
20260904000418 62 144 0.0 1.0 0.00 0.00 0.00 67 1024.1
20260903235917 62 135 1.0 2.0 0.00 0.00 0.00 67 1024.1
20260903235416 62 135 1.0 2.0 0.00 0.00 0.00 67 1024.0
20260903234918 63 135 0.0 0.0 0.00 0.00 0.00 67 1024.0
20260903234417 63 135 1.0 2.0 0.00 0.00 0.00 67 1024.1
20260903233916 63 140 1.0 1.0 0.00 0.00 0.00 65 1024.0
20260903233418 64 135 1.0 2.0 0.00 0.00 0.00 62 1024.0
20260903232917 63 113 1.0 1.0 0.00 0.00 0.00 66 1023.9
20260903232416 64 152 0.0 1.0 0.00 0.00 0.00 62 1023.9
20260903231916 64 135 0.0 1.0 0.00 0.00 0.00 61 1023.9
20260903231417 64 141 1.0 2.0 0.00 0.00 0.00 62 1023.8
20260903230917 64 158 5.0 6.0 0.00 0.00 0.00 62 1023.8
20260903230416 64 135 0.0 1.0 0.00 0.00 0.00 62 1023.9
20260903225918 64 135 1.0 2.0 0.00 0.00 0.00 63 1023.8
20260903225417 64 135 3.0 6.0 0.00 0.00 0.00 63 1023.7
20260903224916 64 158 2.0 3.0 0.00 0.00 0.00 64 1023.7
20260903224418 64 141 1.0 2.0 0.00 0.00 0.00 64 1023.8
20260903223917 65 135 3.0 5.0 0.00 0.00 0.00 63 1023.9
20260903223416 65 116 3.0 5.0 0.00 0.00 0.00 63 1023.8
20260903222916 65 151 1.0 5.0 0.00 0.00 0.00 62 1023.8
20260903222417 65 158 2.0 3.0 0.00 0.00 0.00 63 1023.8
20260903221919 65 135 1.0 1.0 0.00 0.00 0.00 62 1023.8
20260903221418 66 135 3.0 3.0 0.00 0.00 0.00 62 1023.8
20260903220918 66 135 0.0 2.0 0.00 0.00 0.00 61 1023.8
20260903220421 66 135 3.0 3.0 0.00 0.00 0.00 61 1023.8
20260903215919 66 135 0.0 0.0 0.00 0.00 0.00 61 1023.9
20260903215418 67 135 1.0 1.0 0.00 0.00 0.00 61 1024.0
20260903214917 67 135 0.0 5.0 0.00 0.00 0.00 61 1023.8
20260903214419 67 135 1.0 2.0 0.00 0.00 0.00 61 1023.8
20260903213917 67 135 2.0 3.0 0.00 0.00 0.00 60 1023.9
20260903213419 68 135 1.0 3.0 0.00 0.00 0.00 60 1023.9
20260903212918 68 135 0.0 1.0 0.00 0.00 0.00 59 1024.0
20260903212418 69 135 3.0 6.0 0.00 0.00 0.00 58 1024.0
20260903211918 68 135 2.0 3.0 0.00 0.00 0.00 59 1024.0
20260903211418 69 135 5.0 6.0 0.00 0.00 0.00 58 1024.0
20260903210918 69 135 2.0 3.0 0.00 0.00 0.00 59 1024.1
20260903210418 69 135 3.0 3.0 0.00 0.00 0.00 60 1024.1
20260903205917 69 158 3.0 5.0 0.00 0.00 0.00 59 1024.0
20260903205418 69 154 0.0 1.0 0.00 0.00 0.00 59 1024.0
20260903204917 70 135 0.0 1.0 0.00 0.00 0.00 59 1024.0
20260903204418 70 157 1.0 3.0 0.00 0.00 0.00 58 1024.1
20260903203917 70 135 2.0 5.0 0.00 0.00 0.00 59 1024.0
20260903203416 70 158 2.0 3.0 0.00 0.00 0.00 60 1024.0
20260903202916 69 158 3.0 6.0 0.00 0.00 0.00 61 1024.0
20260903202416 70 144 0.0 0.0 0.00 0.00 0.00 61 1023.9
20260903201916 70 149 1.0 3.0 0.00 0.00 0.00 60 1023.9
20260903201416 71 135 1.0 3.0 0.00 0.00 0.00 59 1023.9
20260903200917 71 142 2.0 3.0 0.00 0.00 0.00 59 1023.8
20260903200417 72 136 2.0 6.0 0.00 0.00 0.00 58 1023.9
20260903195916 73 158 0.0 1.0 0.00 0.00 0.00 52 1023.8
20260903195416 73 146 1.0 3.0 0.00 0.00 0.00 52 1023.8
20260903194917 73 158 1.0 3.0 0.00 0.00 0.00 53 1023.7
20260903194416 73 144 2.0 3.0 0.00 0.00 0.00 53 1023.7
20260903193917 73 151 5.0 6.0 0.00 0.00 0.00 53 1023.6
20260903193417 73 136 5.0 6.0 0.00 0.00 0.00 53 1023.7
20260903192916 74 135 2.0 5.0 0.00 0.00 0.00 53 1023.7
20260903192418 73 135 2.0 3.0 0.00 0.00 0.00 53 1023.6
20260903191917 73 135 0.0 2.0 0.00 0.00 0.00 53 1023.7
20260903191417 74 135 2.0 5.0 0.00 0.00 0.00 53 1023.5
20260903190916 74 135 1.0 3.0 0.00 0.00 0.00 52 1023.6
20260903190417 75 158 2.0 3.0 0.00 0.00 0.00 52 1023.5
20260903185917 74 158 5.0 6.0 0.00 0.00 0.00 53 1023.4
20260903185416 74 142 1.0 2.0 0.00 0.00 0.00 53 1023.5
20260903184917 75 158 0.0 1.0 0.00 0.00 0.00 52 1023.4
20260903184417 75 158 2.0 3.0 0.00 0.00 0.00 53 1023.3
20260903183916 74 154 1.0 2.0 0.00 0.00 0.00 54 1023.3
20260903183418 75 135 1.0 2.0 0.00 0.00 0.00 54 1023.3
20260903182916 75 158 1.0 3.0 0.00 0.00 0.00 52 1023.2
20260903182417 76 158 0.0 1.0 0.00 0.00 0.00 53 1023.2
20260903181917 76 158 0.0 1.0 0.00 0.00 0.00 53 1023.2
20260903181416 76 158 0.0 0.0 0.00 0.00 0.00 52 1023.1
20260903180918 77 158 1.0 2.0 0.00 0.00 0.00 52 1023.1
20260903180417 78 141 0.0 1.0 0.00 0.00 0.00 50 1023.0
20260903175916 79 135 0.0 0.0 0.00 0.00 0.00 49 1023.0
20260903175416 79 135 0.0 0.0 0.00 0.00 0.00 48 1022.9
20260903174917 80 135 0.0 1.0 0.00 0.00 0.00 47 1022.8
20260903174416 80 135 1.0 1.0 0.00 0.00 0.00 47 1022.7
20260903173917 80 135 1.0 2.0 0.00 0.00 0.00 50 1022.7
20260903173416 80 158 3.0 5.0 0.00 0.00 0.00 47 1022.7
20260903172917 81 158 2.0 3.0 0.00 0.00 0.00 46 1022.4
20260903172417 82 148 0.0 1.0 0.00 0.00 0.00 41 1022.5
20260903171918 83 158 2.0 3.0 0.00 0.00 0.00 41 1022.4
20260903171418 84 158 1.0 1.0 0.00 0.00 0.00 40 1022.4
20260903170917 85 158 2.0 3.0 0.00 0.00 0.00 37 1022.3
20260903170417 86 156 2.0 3.0 0.00 0.00 0.00 35 1022.3
20260903165917 87 135 5.0 6.0 0.00 0.00 0.00 32 1022.2
20260903165417 87 118 3.0 3.0 0.00 0.00 0.00 32 1022.1
20260903164918 88 116 2.0 3.0 0.00 0.00 0.00 32 1022.2
20260903164417 88 135 2.0 3.0 0.00 0.00 0.00 31 1022.2
20260903163918 88 112 2.0 3.0 0.00 0.00 0.00 31 1022.1
20260903163418 88 112 3.0 6.0 0.00 0.00 0.00 31 1022.1
20260903162917 89 112 5.0 6.0 0.00 0.00 0.00 30 1022.1
20260903162416 89 124 2.0 3.0 0.00 0.00 0.00 31 1022.1
20260903161916 89 126 5.0 7.0 0.00 0.00 0.00 31 1022.1
20260903161417 89 135 6.0 8.0 0.00 0.00 0.00 31 1022.2
20260903160916 90 119 5.0 9.0 0.00 0.00 0.00 30 1022.1
20260903160416 90 137 3.0 6.0 0.00 0.00 0.00 31 1022.2
20260903155417 88 135 6.0 8.0 0.00 0.00 0.00 31 1022.2
20260903154916 88 145 3.0 5.0 0.00 0.00 0.00 32 1022.2
20260903154417 89 135 2.0 6.0 0.00 0.00 0.00 32 1022.3
20260903153917 89 135 5.0 7.0 0.00 0.00 0.00 32 1022.2
20260903153416 89 135 5.0 8.0 0.00 0.00 0.00 32 1022.2
20260903152917 89 138 7.0 10.0 0.00 0.00 0.00 31 1022.2
20260903152416 90 127 6.0 8.0 0.00 0.00 0.00 32 1022.1
20260903151916 90 122 7.0 8.0 0.00 0.00 0.00 32 1022.1
20260903151416 90 117 9.0 13.0 0.00 0.00 0.00 30 1022.1
20260903150917 91 112 5.0 6.0 0.00 0.00 0.00 29 1022.1
20260903150417 91 156 6.0 8.0 0.00 0.00 0.00 30 1022.2
20260903145917 90 135 7.0 9.0 0.00 0.00 0.00 31 1022.1
20260903145416 90 117 6.0 8.0 0.00 0.00 0.00 31 1022.2
20260903144917 90 138 7.0 8.0 0.00 0.00 0.00 32 1022.1
20260903144416 89 158 12.0 14.0 0.00 0.00 0.00 32 1022.3
20260903143916 89 158 7.0 12.0 0.00 0.00 0.00 32 1022.3
20260903143417 89 150 8.0 14.0 0.00 0.00 0.00 32 1022.3
20260903142916 89 135 6.0 10.0 0.00 0.00 0.00 32 1022.3
20260903142417 89 115 6.0 7.0 0.00 0.00 0.00 33 1022.3
20260903141916 89 128 7.0 8.0 0.00 0.00 0.00 33 1022.4
20260903141416 89 141 7.0 9.0 0.00 0.00 0.00 32 1022.4
20260903140917 89 135 7.0 12.0 0.00 0.00 0.00 33 1022.4
20260903140416 89 145 7.0 10.0 0.00 0.00 0.00 33 1022.4
20260903135915 89 135 6.0 8.0 0.00 0.00 0.00 33 1022.4
20260903135417 89 112 8.0 10.0 0.00 0.00 0.00 32 1022.5
20260903134916 89 149 9.0 13.0 0.00 0.00 0.00 32 1022.5
20260903134416 89 152 5.0 8.0 0.00 0.00 0.00 32 1022.5
20260903133917 90 135 8.0 13.0 0.00 0.00 0.00 31 1022.5
20260903133416 89 158 6.0 7.0 0.00 0.00 0.00 31 1022.5
20260903132916 89 128 5.0 9.0 0.00 0.00 0.00 32 1022.5
20260903132417 89 112 8.0 9.0 0.00 0.00 0.00 30 1022.5
20260903131915 88 112 6.0 12.0 0.00 0.00 0.00 31 1022.6
20260903131417 88 118 8.0 13.0 0.00 0.00 0.00 31 1022.6
20260903130916 88 158 5.0 7.0 0.00 0.00 0.00 31 1022.5
20260903130417 88 158 7.0 9.0 0.00 0.00 0.00 30 1022.6
20260903125916 89 158 8.0 10.0 0.00 0.00 0.00 31 1022.6
20260903125416 89 144 5.0 9.0 0.00 0.00 0.00 30 1022.6
20260903124917 89 135 7.0 10.0 0.00 0.00 0.00 29 1022.5
20260903124416 88 135 6.0 12.0 0.00 0.00 0.00 27 1022.5
20260903123916 88 126 8.0 9.0 0.00 0.00 0.00 30 1022.5
20260903123416 88 112 10.0 13.0 0.00 0.00 0.00 25 1022.6
20260903122917 88 112 6.0 10.0 0.00 0.00 0.00 25 1022.6
20260903122416 88 135 7.0 9.0 0.00 0.00 0.00 23 1022.6
20260903121917 89 157 5.0 9.0 0.00 0.00 0.00 25 1022.7
20260903121416 88 135 5.0 7.0 0.00 0.00 0.00 24 1022.7
20260903120916 89 112 8.0 9.0 0.00 0.00 0.00 25 1022.7
20260903120417 88 119 9.0 13.0 0.00 0.00 0.00 23 1022.8
20260903115916 89 135 3.0 5.0 0.00 0.00 0.00 24 1022.8
20260903115416 89 151 6.0 8.0 0.00 0.00 0.00 23 1022.8
20260903114916 88 145 5.0 7.0 0.00 0.00 0.00 23 1022.8
20260903114417 88 128 6.0 8.0 0.00 0.00 0.00 23 1022.9
20260903113916 88 141 6.0 9.0 0.00 0.00 0.00 26 1022.8
20260903113417 89 112 7.0 10.0 0.00 0.00 0.00 27 1022.9
20260903112916 89 129 5.0 7.0 0.00 0.00 0.00 23 1023.0
20260903112416 89 135 5.0 7.0 0.00 0.00 0.00 25 1023.0
20260903111917 89 135 6.0 8.0 0.00 0.00 0.00 25 1023.0
20260903111416 88 132 3.0 8.0 0.00 0.00 0.00 30 1023.1
20260903110916 88 158 5.0 6.0 0.00 0.00 0.00 26 1023.3
20260903110416 88 158 7.0 8.0 0.00 0.00 0.00 30 1023.3
20260903105917 89 112 6.0 8.0 0.00 0.00 0.00 30 1023.3
20260903105417 89 135 5.0 8.0 0.00 0.00 0.00 30 1023.4
20260903104916 89 135 2.0 6.0 0.00 0.00 0.00 31 1023.5
20260903104417 88 144 5.0 8.0 0.00 0.00 0.00 30 1023.6
20260903103917 88 126 5.0 8.0 0.00 0.00 0.00 31 1023.9
20260903103416 88 152 5.0 6.0 0.00 0.00 0.00 30 1023.9
20260903102915 88 125 2.0 6.0 0.00 0.00 0.00 31 1024.0
20260903102417 88 112 2.0 3.0 0.00 0.00 0.00 31 1024.0
20260903101916 87 119 5.0 7.0 0.00 0.00 0.00 30 1024.3
20260903101416 86 135 3.0 5.0 0.00 0.00 0.00 28 1024.0
20260903100917 86 158 3.0 5.0 0.00 0.00 0.00 30 1024.2
20260903100417 87 112 7.0 8.0 0.00 0.00 0.00 30 1024.2
20260903095916 87 135 3.0 5.0 0.00 0.00 0.00 25 1024.1
20260903095417 87 154 2.0 6.0 0.00 0.00 0.00 26 1024.2
20260903094915 85 140 5.0 6.0 0.00 0.00 0.00 26 1024.4
20260903094417 86 134 3.0 6.0 0.00 0.00 0.00 21 1024.4
20260903093916 85 112 3.0 8.0 0.00 0.00 0.00 21 1024.5
20260903093417 85 130 5.0 7.0 0.00 0.00 0.00 20 1024.5
20260903092917 86 147 3.0 6.0 0.00 0.00 0.00 20 1024.5
20260903092416 85 116 3.0 6.0 0.00 0.00 0.00 20 1024.6
20260903091915 86 135 3.0 3.0 0.00 0.00 0.00 20 1024.6
20260903091417 85 135 5.0 7.0 0.00 0.00 0.00 15 1024.7
20260903090916 84 141 1.0 2.0 0.00 0.00 0.00 20 1024.8
20260903090415 83 135 6.0 8.0 0.00 0.00 0.00 20 1024.7
20260903085916 83 132 7.0 8.0 0.00 0.00 0.00 20 1024.6
20260903085417 84 112 6.0 9.0 0.00 0.00 0.00 20 1024.6
20260903084916 83 158 3.0 6.0 0.00 0.00 0.00 20 1024.6
20260903084416 83 126 2.0 6.0 0.00 0.00 0.00 20 1024.6
20260903083917 83 122 2.0 3.0 0.00 0.00 0.00 20 1024.6
20260903083416 83 142 3.0 3.0 0.00 0.00 0.00 20 1024.5
20260903082916 83 112 3.0 5.0 0.00 0.00 0.00 13 1024.6
20260903082415 84 135 2.0 3.0 0.00 0.00 0.00 16 1024.5
20260903081917 85 156 1.0 1.0 0.00 0.00 0.00 20 1024.5
20260903081416 84 135 1.0 2.0 0.00 0.00 0.00 13 1024.4
20260903080915 83 135 1.0 2.0 0.00 0.00 0.00 13 1024.5
20260903080417 82 135 2.0 3.0 0.00 0.00 0.00 13 1024.5
20260903075916 81 135 2.0 3.0 0.00 0.00 0.00 21 1024.5
20260903075417 81 135 5.0 6.0 0.00 0.00 0.00 20 1024.5
20260903074916 80 135 3.0 5.0 0.00 0.00 0.00 20 1024.3
20260903074415 79 135 2.0 3.0 0.00 0.00 0.00 21 1024.3
20260903073916 78 135 3.0 5.0 0.00 0.00 0.00 21 1024.3
20260903073417 78 135 5.0 7.0 0.00 0.00 0.00 21 1024.3
20260903072915 78 135 3.0 6.0 0.00 0.00 0.00 22 1024.3
20260903072417 78 135 1.0 3.0 0.00 0.00 0.00 21 1024.3
20260903071916 77 135 5.0 6.0 0.00 0.00 0.00 21 1024.4
20260903071415 77 135 3.0 6.0 0.00 0.00 0.00 21 1024.6
20260903070917 77 135 5.0 6.0 0.00 0.00 0.00 21 1024.6
20260903070416 76 135 3.0 3.0 0.00 0.00 0.00 22 1024.5
20260903065915 76 135 5.0 6.0 0.00 0.00 0.00 21 1024.4
20260903065417 76 154 3.0 8.0 0.00 0.00 0.00 22 1024.5
20260903064916 75 135 3.0 6.0 0.00 0.00 0.00 22 1024.4
20260903064415 75 135 5.0 7.0 0.00 0.00 0.00 23 1024.5
20260903063916 75 135 2.0 3.0 0.00 0.00 0.00 23 1024.4
20260903063417 74 135 5.0 6.0 0.00 0.00 0.00 21 1024.5
20260903062916 73 135 5.0 6.0 0.00 0.00 0.00 23 1024.5
20260903062417 73 135 6.0 8.0 0.00 0.00 0.00 23 1024.3
20260903061916 72 135 3.0 5.0 0.00 0.00 0.00 30 1024.4
20260903061415 72 158 5.0 6.0 0.00 0.00 0.00 30 1024.3
20260903060917 73 135 1.0 3.0 0.00 0.00 0.00 25 1024.2
20260903060416 72 135 3.0 7.0 0.00 0.00 0.00 27 1024.3
20260903055915 71 135 3.0 5.0 0.00 0.00 0.00 28 1024.4
20260903055417 71 135 3.0 6.0 0.00 0.00 0.00 25 1024.3
20260903054916 70 135 5.0 6.0 0.00 0.00 0.00 26 1024.3
20260903054416 68 135 3.0 6.0 0.00 0.00 0.00 30 1024.3
20260903053917 66 135 3.0 6.0 0.00 0.00 0.00 32 1024.0
20260903053417 64 135 3.0 9.0 0.00 0.00 0.00 36 1024.1
20260903052916 63 158 2.0 5.0 0.00 0.00 0.00 41 1024.0
20260903052416 62 135 1.0 6.0 0.00 0.00 0.00 41 1024.0
20260903051917 62 140 2.0 3.0 0.00 0.00 0.00 41 1024.0
20260903051416 63 158 5.0 6.0 0.00 0.00 0.00 40 1023.9
20260903050915 63 158 2.0 3.0 0.00 0.00 0.00 40 1024.0
20260903050417 62 135 1.0 3.0 0.00 0.00 0.00 41 1023.8
20260903045916 62 135 2.0 3.0 0.00 0.00 0.00 44 1023.8
20260903045416 62 135 2.0 5.0 0.00 0.00 0.00 44 1023.8
20260903044917 62 150 1.0 2.0 0.00 0.00 0.00 43 1023.6
20260903044417 62 158 2.0 5.0 0.00 0.00 0.00 43 1023.6
20260903043916 61 135 0.0 1.0 0.00 0.00 0.00 45 1023.6
20260903043415 61 148 0.0 1.0 0.00 0.00 0.00 45 1023.6
20260903042917 61 145 1.0 6.0 0.00 0.00 0.00 45 1023.5
20260903042416 61 151 3.0 6.0 0.00 0.00 0.00 45 1023.5
20260903041916 61 135 2.0 5.0 0.00 0.00 0.00 48 1023.5
20260903041415 61 158 1.0 5.0 0.00 0.00 0.00 49 1023.6
20260903040917 61 150 0.0 1.0 0.00 0.00 0.00 50 1023.6
20260903040416 61 157 1.0 3.0 0.00 0.00 0.00 50 1023.6
20260903035415 61 135 0.0 1.0 0.00 0.00 0.00 51 1023.7
20260903034915 60 132 3.0 3.0 0.00 0.00 0.00 51 1023.7
20260903034415 61 158 0.0 1.0 0.00 0.00 0.00 51 1023.6
20260903033914 62 150 5.0 6.0 0.00 0.00 0.00 48 1023.6
20260903033416 62 143 1.0 2.0 0.00 0.00 0.00 50 1023.6
20260903032915 62 153 2.0 3.0 0.00 0.00 0.00 48 1023.8
20260903032415 62 135 2.0 3.0 0.00 0.00 0.00 50 1023.8
20260903031915 62 158 0.0 1.0 0.00 0.00 0.00 48 1023.7
20260903031414 63 144 1.0 2.0 0.00 0.00 0.00 46 1023.6
20260903030914 64 153 0.0 2.0 0.00 0.00 0.00 42 1023.7
20260903030415 64 135 0.0 1.0 0.00 0.00 0.00 42 1023.6
20260903025915 64 158 0.0 1.0 0.00 0.00 0.00 41 1023.5
20260903025414 65 112 1.0 1.0 0.00 0.00 0.00 41 1023.6
20260903024915 65 135 2.0 3.0 0.00 0.00 0.00 40 1023.5
20260903024415 65 121 2.0 3.0 0.00 0.00 0.00 40 1023.4
20260903023914 67 141 0.0 3.0 0.00 0.00 0.00 37 1023.5
20260903023416 67 147 1.0 2.0 0.00 0.00 0.00 36 1023.4
20260903022915 67 156 1.0 2.0 0.00 0.00 0.00 36 1023.3
20260903022414 68 135 7.0 9.0 0.00 0.00 0.00 36 1023.2
20260903021916 69 68 0.0 1.0 0.00 0.00 0.00 33 1023.2
20260903021415 69 141 1.0 3.0 0.00 0.00 0.00 32 1023.2
20260903020915 70 158 1.0 3.0 0.00 0.00 0.00 33 1023.2
20260903020414 72 135 0.0 2.0 0.00 0.00 0.00 31 1023.2
20260903015915 72 135 2.0 3.0 0.00 0.00 0.00 31 1023.2
20260903015415 72 135 2.0 3.0 0.00 0.00 0.00 31 1023.1
20260903014916 72 152 1.0 3.0 0.00 0.00 0.00 32 1023.1
20260903014415 72 135 2.0 3.0 0.00 0.00 0.00 31 1023.2
20260903013915 72 135 2.0 3.0 0.00 0.00 0.00 31 1023.1
20260903013416 72 135 3.0 7.0 0.00 0.00 0.00 32 1023.1
20260903012915 73 135 5.0 6.0 0.00 0.00 0.00 30 1023.2
20260903012414 73 135 5.0 7.0 0.00 0.00 0.00 30 1023.1
20260903011915 73 135 6.0 8.0 0.00 0.00 0.00 30 1023.1
20260903011414 73 135 7.0 9.0 0.00 0.00 0.00 30 1023.1
20260903010916 73 135 10.0 14.0 0.00 0.00 0.00 30 1023.1
20260903010417 73 135 10.0 13.0 0.00 0.00 0.00 30 1023.1
20260903005917 73 135 7.0 8.0 0.00 0.00 0.00 30 1023.1
20260903005417 73 135 6.0 9.0 0.00 0.00 0.00 31 1023.1
20260903004917 73 135 6.0 10.0 0.00 0.00 0.00 30 1023.1
20260903004416 73 135 7.0 9.0 0.00 0.00 0.00 31 1023.0
20260903003918 73 135 12.0 14.0 0.00 0.00 0.00 30 1023.0
20260903003417 73 158 3.0 6.0 0.00 0.00 0.00 31 1023.0